Precipitable_Water
0.25 0.20 0.22 0.24 0.26 0.25 0.26 0.24 0.23 0.22 0.19 0.17 0.15 0.14 0.13 0.12 0.12 0.13 0.14 0.16 0.16 0.12 0.10 0.10 0.11 0.12 0.13 0.14 0.14 0.15 0.16 0.16 0.16 0.15 0.17 0.19 0.20 0.21 0.23 0.24 0.27 0.30 0.33 0.38 0.43 0.49 0.59 0.82 0.98 0.96 0.99 1.09 1.19 1.29 1.31 1.29 1.30 1.29 1.30 1.35 1.36 1.43 1.46 1.42 1.38 1.33 1.29 1.23 1.18 1.16 1.12 1.08 1.12 1.11 1.14 1.15 1.17 1.19 1.21 1.13 1.01 0.98 0.97 1.05 1.18 1.30
0.23 0.17 0.19 0.24 0.28 0.28 0.28 0.28 0.26 0.25 0.23 0.21 0.18 0.16 0.15 0.15 0.12 0.15 0.16 0.18 0.17 0.13 0.11 0.12 0.11 0.11 0.12 0.13 0.13 0.13 0.13 0.12 0.13 0.14 0.14 0.15 0.18 0.21 0.22 0.23 0.25 0.28 0.33 0.36 0.37 0.43 0.50 0.66 0.94 0.99 0.97 1.01 1.08 1.21 1.25 1.23 1.25 1.27 1.31 1.34 1.40 1.45 1.43 1.42 1.40 1.32 1.26 1.24 1.19 1.15 1.14 1.13 1.14 1.11 1.09 1.09 1.15 1.19 1.22 1.16 1.06 0.99 0.97 1.16 1.25 1.28
0.22 0.20 0.23 0.26 0.26 0.26 0.27 0.28 0.27 0.24 0.23 0.22 0.20 0.19 0.17 0.15 0.16 0.18 0.18 0.19 0.18 0.15 0.12 0.13 0.12 0.12 0.13 0.13 0.13 0.13 0.13 0.13 0.14 0.14 0.14 0.15 0.15 0.17 0.20 0.23 0.25 0.26 0.29 0.33 0.36 0.40 0.44 0.52 0.82 0.89 0.88 0.90 0.96 1.09 1.17 1.23 1.26 1.24 1.30 1.37 1.41 1.42 1.41 1.43 1.44 1.34 1.23 1.24 1.25 1.21 1.17 1.15 1.14 1.17 1.16 1.15 1.18 1.22 1.23 1.21 1.11 1.02 1.09 1.19 1.22 1.25
0.15 0.19 0.25 0.26 0.25 0.23 0.24 0.25 0.25 0.24 0.23 0.22 0.21 0.19 0.17 0.18 0.17 0.15 0.19 0.19 0.19 0.17 0.15 0.15 0.14 0.14 0.15 0.15 0.14 0.15 0.14 0.14 0.15 0.14 0.14 0.15 0.14 0.14 0.14 0.17 0.21 0.23 0.25 0.26 0.32 0.37 0.43 0.47 0.73 0.84 0.79 0.84 0.92 0.99 1.12 1.22 1.24 1.24 1.27 1.34 1.39 1.41 1.45 1.45 1.45 1.36 1.30 1.28 1.30 1.29 1.22 1.20 1.16 1.12 1.17 1.19 1.23 1.24 1.25 1.21 1.13 1.07 1.15 1.20 1.20 1.23
0.16 0.18 0.24 0.25 0.25 0.24 0.22 0.23 0.23 0.22 0.21 0.22 0.21 0.20 0.19 0.20 0.20 0.18 0.18 0.18 0.18 0.18 0.18 0.16 0.14 0.14 0.14 0.13 0.13 0.14 0.15 0.14 0.14 0.14 0.14 0.14 0.15 0.15 0.15 0.15 0.16 0.19 0.23 0.25 0.28 0.34 0.41 0.44 0.61 0.82 0.78 0.83 0.87 0.91 0.98 1.11 1.21 1.18 1.23 1.32 1.36 1.41 1.44 1.46 1.46 1.39 1.31 1.28 1.27 1.26 1.22 1.20 1.18 1.19 1.17 1.15 1.15 1.20 1.21 1.22 1.11 1.06 1.16 1.21 1.21 1.23
0.24 0.27 0.23 0.20 0.21 0.22 0.22 0.21 0.22 0.23 0.20 0.21 0.23 0.22 0.21 0.22 0.21 0.21 0.21 0.19 0.17 0.15 0.17 0.16 0.12 0.12 0.14 0.14 0.14 0.14 0.16 0.15 0.15 0.13 0.13 0.13 0.15 0.17 0.17 0.16 0.15 0.15 0.18 0.23 0.25 0.28 0.35 0.43 0.54 0.76 0.84 0.75 0.80 0.88 0.99 1.10 1.15 1.20 1.24 1.32 1.38 1.42 1.43 1.46 1.47 1.43 1.30 1.22 1.18 1.13 1.04 1.00 1.01 0.98 1.01 1.01 1.04 1.10 1.13 1.13 1.13 1.11 1.18 1.24 1.22 1.22
0.24 0.27 0.26 0.21 0.20 0.19 0.19 0.19 0.22 0.23 0.19 0.19 0.20 0.25 0.24 0.24 0.22 0.21 0.20 0.19 0.15 0.13 0.17 0.18 0.12 0.10 0.14 0.14 0.16 0.16 0.15 0.14 0.16 0.15 0.14 0.14 0.15 0.16 0.17 0.18 0.19 0.17 0.16 0.17 0.22 0.25 0.27 0.32 0.43 0.67 0.83 0.78 0.78 0.85 1.01 1.10 1.14 1.17 1.18 1.25 1.36 1.39 1.41 1.46 1.48 1.46 1.32 1.21 1.18 1.13 1.06 1.03 1.01 0.97 1.03 1.11 1.17 1.17 1.19 1.21 1.16 1.12 1.19 1.23 1.23 1.23
0.27 0.26 0.26 0.26 0.23 0.20 0.18 0.18 0.22 0.23 0.19 0.16 0.23 0.24 0.24 0.22 0.20 0.20 0.20 0.19 0.17 0.19 0.19 0.19 0.16 0.12 0.11 0.14 0.18 0.18 0.17 0.16 0.16 0.15 0.14 0.14 0.14 0.15 0.16 0.18 0.18 0.19 0.19 0.17 0.18 0.23 0.27 0.29 0.34 0.49 0.72 0.85 0.76 0.86 0.96 1.00 1.12 1.12 1.16 1.22 1.27 1.34 1.39 1.44 1.48 1.46 1.35 1.21 1.17 1.14 1.11 1.10 1.08 1.05 1.05 1.12 1.17 1.22 1.22 1.20 1.16 1.14 1.18 1.23 1.23 1.22
0.28 0.27 0.26 0.25 0.26 0.23 0.19 0.20 0.21 0.22 0.19 0.19 0.24 0.23 0.22 0.22 0.21 0.21 0.19 0.18 0.18 0.17 0.14 0.16 0.17 0.13 0.11 0.13 0.17 0.17 0.15 0.15 0.15 0.15 0.14 0.14 0.14 0.14 0.15 0.17 0.20 0.19 0.19 0.19 0.18 0.20 0.25 0.29 0.32 0.37 0.61 0.83 0.77 0.83 0.88 0.94 1.05 1.12 1.17 1.24 1.28 1.29 1.35 1.42 1.48 1.47 1.38 1.28 1.20 1.17 1.15 1.11 1.14 1.15 1.13 1.18 1.21 1.20 1.22 1.18 1.19 1.15 1.19 1.22 1.25 1.25
0.29 0.31 0.31 0.28 0.25 0.22 0.25 0.24 0.23 0.23 0.19 0.22 0.25 0.25 0.23 0.22 0.21 0.20 0.19 0.18 0.18 0.16 0.13 0.14 0.16 0.12 0.11 0.14 0.15 0.17 0.15 0.14 0.14 0.14 0.15 0.15 0.15 0.15 0.15 0.15 0.19 0.23 0.21 0.19 0.18 0.19 0.22 0.28 0.35 0.38 0.52 0.73 0.81 0.74 0.84 0.91 0.99 1.08 1.11 1.15 1.23 1.28 1.32 1.39 1.49 1.49 1.40 1.31 1.24 1.17 1.15 1.12 1.12 1.15 1.15 1.17 1.16 1.18 1.20 1.17 1.17 1.19 1.19 1.21 1.23 1.24
0.33 0.38 0.38 0.32 0.27 0.28 0.28 0.28 0.27 0.24 0.23 0.26 0.23 0.21 0.20 0.19 0.19 0.19 0.19 0.18 0.17 0.13 0.13 0.15 0.16 0.15 0.11 0.14 0.15 0.14 0.15 0.16 0.16 0.16 0.16 0.16 0.16 0.15 0.16 0.17 0.17 0.20 0.22 0.20 0.20 0.21 0.22 0.24 0.30 0.40 0.49 0.68 0.75 0.71 0.81 0.86 0.93 1.06 1.10 1.13 1.19 1.23 1.31 1.38 1.49 1.50 1.40 1.31 1.24 1.19 1.17 1.15 1.14 1.16 1.14 1.10 1.13 1.16 1.17 1.14 1.15 1.16 1.18 1.21 1.22 1.25
0.33 0.36 0.36 0.34 0.35 0.34 0.32 0.28 0.31 0.28 0.26 0.24 0.22 0.20 0.19 0.18 0.19 0.18 0.17 0.18 0.14 0.12 0.13 0.15 0.16 0.16 0.11 0.12 0.15 0.16 0.17 0.17 0.17 0.16 0.16 0.16 0.16 0.16 0.17 0.18 0.19 0.19 0.19 0.19 0.17 0.18 0.22 0.24 0.26 0.31 0.44 0.65 0.69 0.72 0.75 0.81 0.84 1.00 1.06 1.08 1.12 1.18 1.22 1.32 1.49 1.50 1.41 1.33 1.26 1.23 1.21 1.17 1.18 1.19 1.13 1.10 1.10 1.14 1.13 1.14 1.14 1.16 1.17 1.19 1.22 1.23
0.29 0.29 0.33 0.33 0.38 0.32 0.32 0.28 0.29 0.30 0.28 0.24 0.21 0.20 0.15 0.14 0.16 0.13 0.15 0.14 0.14 0.11 0.13 0.15 0.15 0.13 0.13 0.13 0.15 0.17 0.16 0.16 0.17 0.17 0.17 0.17 0.16 0.16 0.16 0.16 0.16 0.17 0.19 0.20 0.17 0.15 0.18 0.23 0.27 0.30 0.35 0.57 0.65 0.74 0.75 0.76 0.82 0.91 1.00 1.03 1.08 1.10 1.17 1.26 1.45 1.49 1.41 1.33 1.26 1.24 1.22 1.21 1.22 1.21 1.19 1.17 1.16 1.18 1.16 1.15 1.13 1.12 1.11 1.15 1.16 1.19
0.25 0.32 0.32 0.32 0.34 0.37 0.33 0.25 0.23 0.23 0.26 0.25 0.21 0.18 0.16 0.13 0.12 0.11 0.11 0.13 0.14 0.16 0.17 0.16 0.16 0.13 0.14 0.16 0.17 0.15 0.15 0.16 0.16 0.16 0.16 0.17 0.17 0.16 0.16 0.16 0.16 0.16 0.17 0.18 0.18 0.17 0.18 0.23 0.30 0.34 0.41 0.53 0.63 0.68 0.80 0.76 0.79 0.86 0.95 1.02 1.08 1.07 1.13 1.23 1.42 1.47 1.40 1.34 1.30 1.30 1.26 1.24 1.23 1.22 1.21 1.19 1.22 1.24 1.20 1.17 1.14 1.13 1.12 1.12 1.14 1.18
0.19 0.21 0.27 0.31 0.27 0.36 0.33 0.31 0.29 0.26 0.25 0.25 0.27 0.24 0.20 0.18 0.14 0.11 0.12 0.11 0.12 0.12 0.14 0.17 0.14 0.13 0.13 0.12 0.16 0.17 0.18 0.17 0.18 0.18 0.18 0.18 0.19 0.19 0.19 0.18 0.18 0.18 0.17 0.16 0.17 0.17 0.18 0.24 0.29 0.33 0.44 0.58 0.64 0.73 0.81 0.75 0.77 0.83 0.91 1.01 1.08 1.07 1.12 1.21 1.33 1.39 1.39 1.36 1.33 1.33 1.30 1.27 1.24 1.24 1.23 1.24 1.27 1.27 1.22 1.19 1.16 1.14 1.16 1.15 1.17 1.19
0.26 0.25 0.33 0.38 0.36 0.36 0.33 0.36 0.36 0.32 0.27 0.27 0.26 0.26 0.21 0.18 0.23 0.16 0.15 0.17 0.16 0.15 0.14 0.15 0.14 0.16 0.15 0.19 0.20 0.23 0.22 0.19 0.20 0.19 0.19 0.18 0.18 0.17 0.17 0.17 0.18 0.18 0.18 0.18 0.17 0.17 0.18 0.20 0.25 0.30 0.33 0.42 0.59 0.71 0.92 0.80 0.73 0.78 0.86 0.99 1.08 1.05 1.08 1.18 1.29 1.32 1.37 1.37 1.34 1.34 1.31 1.28 1.26 1.26 1.27 1.27 1.27 1.29 1.28 1.23 1.17 1.14 1.16 1.17 1.20 1.23
0.27 0.24 0.35 0.37 0.40 0.39 0.38 0.39 0.37 0.37 0.22 0.25 0.26 0.21 0.22 0.27 0.24 0.20 0.19 0.18 0.18 0.16 0.12 0.15 0.16 0.17 0.18 0.17 0.16 0.16 0.16 0.15 0.15 0.14 0.14 0.15 0.20 0.29 0.31 0.27 0.20 0.18 0.20 0.20 0.20 0.20 0.20 0.21 0.24 0.30 0.32 0.35 0.45 0.68 0.95 0.91 0.74 0.75 0.83 0.93 1.02 1.02 1.08 1.16 1.28 1.30 1.37 1.36 1.33 1.32 1.33 1.30 1.26 1.23 1.22 1.23 1.23 1.26 1.32 1.28 1.19 1.15 1.16 1.18 1.21 1.22
0.26 0.25 0.36 0.36 0.34 0.42 0.45 0.44 0.41 0.38 0.37 0.31 0.23 0.24 0.27 0.29 0.29 0.23 0.16 0.18 0.16 0.13 0.12 0.13 0.12 0.12 0.13 0.10 0.16 0.16 0.16 0.15 0.14 0.14 0.17 0.24 0.27 0.25 0.27 0.28 0.26 0.23 0.21 0.25 0.26 0.25 0.23 0.22 0.24 0.28 0.32 0.35 0.44 0.59 0.81 0.97 0.82 0.76 0.82 0.88 0.97 0.99 1.03 1.17 1.31 1.32 1.36 1.35 1.32 1.31 1.31 1.30 1.26 1.23 1.25 1.27 1.25 1.27 1.30 1.26 1.21 1.18 1.15 1.16 1.21 1.23
0.38 0.24 0.31 0.37 0.38 0.41 0.45 0.44 0.39 0.41 0.41 0.32 0.28 0.33 0.23 0.19 0.18 0.23 0.21 0.13 0.12 0.12 0.11 0.12 0.12 0.13 0.13 0.12 0.14 0.14 0.15 0.15 0.16 0.18 0.19 0.21 0.24 0.29 0.30 0.30 0.32 0.34 0.28 0.23 0.22 0.21 0.22 0.21 0.22 0.26 0.29 0.34 0.40 0.55 0.78 0.93 0.83 0.76 0.82 0.89 0.98 0.97 1.05 1.19 1.31 1.31 1.34 1.33 1.30 1.32 1.31 1.29 1.27 1.26 1.28 1.29 1.29 1.28 1.25 1.21 1.20 1.17 1.16 1.18 1.20 1.18
0.41 0.27 0.28 0.39 0.37 0.41 0.42 0.41 0.29 0.34 0.40 0.38 0.36 0.29 0.30 0.25 0.20 0.20 0.21 0.19 0.16 0.12 0.11 0.10 0.12 0.11 0.13 0.14 0.14 0.14 0.15 0.17 0.19 0.19 0.20 0.22 0.27 0.29 0.32 0.33 0.32 0.30 0.35 0.41 0.43 0.42 0.37 0.29 0.27 0.27 0.27 0.29 0.33 0.48 0.72 0.90 0.85 0.73 0.80 0.89 0.94 1.01 1.14 1.23 1.26 1.31 1.33 1.36 1.36 1.33 1.32 1.31 1.29 1.27 1.27 1.29 1.28 1.24 1.22 1.22 1.20 1.17 1.15 1.16 1.18 1.17
0.36 0.42 0.25 0.34 0.42 0.41 0.32 0.38 0.33 0.35 0.29 0.29 0.28 0.23 0.25 0.23 0.27 0.24 0.24 0.19 0.17 0.15 0.12 0.12 0.11 0.11 0.13 0.14 0.15 0.15 0.16 0.18 0.19 0.19 0.20 0.20 0.25 0.32 0.36 0.38 0.37 0.36 0.35 0.35 0.37 0.38 0.43 0.46 0.48 0.48 0.44 0.40 0.37 0.46 0.68 0.86 0.85 0.72 0.82 0.89 0.91 0.95 1.07 1.16 1.20 1.24 1.34 1.40 1.35 1.32 1.28 1.26 1.27 1.26 1.29 1.29 1.28 1.25 1.24 1.24 1.22 1.19 1.16 1.17 1.14 1.15
0.37 0.37 0.29 0.33 0.34 0.33 0.35 0.43 0.42 0.39 0.36 0.30 0.25 0.21 0.22 0.20 0.19 0.18 0.13 0.19 0.18 0.17 0.14 0.12 0.10 0.11 0.14 0.18 0.18 0.17 0.19 0.19 0.21 0.24 0.27 0.26 0.29 0.36 0.38 0.42 0.41 0.39 0.36 0.36 0.36 0.37 0.39 0.41 0.44 0.47 0.49 0.48 0.47 0.48 0.63 0.82 0.86 0.71 0.78 0.85 0.89 0.98 1.06 1.12 1.17 1.19 1.28 1.35 1.36 1.30 1.27 1.27 1.29 1.28 1.29 1.27 1.27 1.24 1.23 1.23 1.20 1.18 1.16 1.12 1.13 1.13
0.46 0.42 0.36 0.29 0.32 0.34 0.39 0.44 0.48 0.46 0.38 0.31 0.28 0.23 0.25 0.23 0.21 0.17 0.11 0.15 0.18 0.17 0.15 0.14 0.12 0.11 0.17 0.23 0.25 0.25 0.25 0.28 0.29 0.27 0.30 0.31 0.36 0.41 0.42 0.42 0.42 0.42 0.40 0.38 0.37 0.38 0.42 0.42 0.42 0.46 0.49 0.48 0.47 0.51 0.66 0.83 0.84 0.71 0.73 0.82 0.88 0.94 1.02 1.08 1.14 1.19 1.25 1.28 1.32 1.33 1.30 1.29 1.27 1.26 1.26 1.25 1.25 1.23 1.23 1.22 1.21 1.19 1.13 1.10 1.11 1.13
0.52 0.38 0.31 0.31 0.37 0.40 0.44 0.47 0.46 0.45 0.37 0.30 0.27 0.27 0.24 0.21 0.21 0.19 0.17 0.19 0.16 0.18 0.15 0.15 0.13 0.14 0.18 0.26 0.26 0.28 0.28 0.29 0.28 0.31 0.29 0.29 0.39 0.44 0.42 0.40 0.41 0.43 0.43 0.41 0.40 0.41 0.45 0.46 0.46 0.47 0.46 0.46 0.46 0.52 0.67 0.83 0.86 0.72 0.74 0.83 0.86 0.91 1.01 1.09 1.14 1.18 1.22 1.25 1.29 1.35 1.32 1.28 1.26 1.25 1.24 1.23 1.23 1.21 1.21 1.22 1.20 1.18 1.14 1.11 1.10 1.10
0.37 0.39 0.35 0.27 0.26 0.28 0.34 0.37 0.38 0.40 0.35 0.29 0.25 0.27 0.24 0.25 0.24 0.24 0.22 0.22 0.17 0.17 0.17 0.15 0.11 0.13 0.20 0.27 0.30 0.29 0.30 0.27 0.26 0.27 0.28 0.28 0.36 0.41 0.43 0.45 0.48 0.47 0.43 0.42 0.43 0.46 0.49 0.48 0.48 0.51 0.50 0.48 0.46 0.53 0.68 0.80 0.86 0.78 0.71 0.80 0.86 0.91 1.03 1.08 1.13 1.15 1.18 1.24 1.27 1.33 1.31 1.26 1.24 1.20 1.21 1.21 1.21 1.19 1.20 1.19 1.18 1.16 1.12 1.11 1.10 1.12
0.42 0.38 0.35 0.26 0.22 0.19 0.18 0.20 0.23 0.27 0.29 0.31 0.26 0.26 0.25 0.23 0.24 0.20 0.16 0.18 0.15 0.16 0.18 0.15 0.13 0.15 0.20 0.26 0.27 0.29 0.28 0.28 0.31 0.33 0.34 0.34 0.37 0.42 0.45 0.48 0.47 0.45 0.44 0.45 0.48 0.51 0.50 0.51 0.50 0.54 0.58 0.57 0.51 0.55 0.69 0.80 0.85 0.81 0.71 0.78 0.84 0.88 1.00 1.06 1.10 1.13 1.16 1.21 1.24 1.29 1.29 1.24 1.21 1.18 1.18 1.21 1.20 1.18 1.18 1.18 1.16 1.14 1.13 1.12 1.10 1.12
0.42 0.43 0.41 0.36 0.31 0.27 0.30 0.33 0.39 0.40 0.33 0.23 0.27 0.25 0.23 0.23 0.26 0.25 0.23 0.18 0.14 0.17 0.17 0.17 0.17 0.18 0.19 0.22 0.23 0.23 0.25 0.26 0.29 0.32 0.33 0.33 0.36 0.40 0.44 0.45 0.45 0.46 0.47 0.50 0.54 0.54 0.54 0.54 0.51 0.52 0.61 0.62 0.53 0.56 0.72 0.81 0.85 0.84 0.72 0.76 0.82 0.87 0.93 1.02 1.07 1.11 1.14 1.17 1.21 1.23 1.24 1.22 1.18 1.18 1.18 1.21 1.20 1.18 1.17 1.16 1.16 1.14 1.12 1.13 1.13 1.11
0.43 0.37 0.39 0.40 0.39 0.39 0.40 0.39 0.41 0.39 0.32 0.29 0.25 0.26 0.27 0.21 0.21 0.22 0.20 0.15 0.22 0.20 0.13 0.16 0.21 0.20 0.20 0.22 0.24 0.25 0.27 0.28 0.30 0.34 0.35 0.35 0.34 0.38 0.43 0.45 0.47 0.49 0.51 0.59 0.58 0.56 0.56 0.59 0.61 0.60 0.60 0.63 0.57 0.60 0.74 0.81 0.85 0.83 0.74 0.72 0.78 0.84 0.93 1.01 1.05 1.08 1.11 1.16 1.18 1.19 1.19 1.20 1.19 1.20 1.20 1.23 1.22 1.18 1.17 1.17 1.16 1.14 1.15 1.15 1.12 1.11
0.40 0.35 0.38 0.41 0.39 0.43 0.43 0.42 0.42 0.38 0.36 0.33 0.29 0.27 0.25 0.25 0.23 0.20 0.18 0.18 0.20 0.18 0.14 0.15 0.20 0.19 0.18 0.18 0.19 0.23 0.25 0.27 0.29 0.29 0.33 0.36 0.35 0.40 0.44 0.47 0.48 0.51 0.54 0.61 0.63 0.60 0.62 0.63 0.67 0.70 0.70 0.64 0.57 0.63 0.77 0.83 0.82 0.82 0.78 0.74 0.76 0.82 0.89 0.98 1.01 1.04 1.10 1.14 1.13 1.13 1.17 1.19 1.23 1.24 1.22 1.20 1.19 1.17 1.16 1.16 1.16 1.16 1.15 1.14 1.14 1.14
0.43 0.37 0.40 0.42 0.39 0.40 0.41 0.39 0.38 0.34 0.35 0.34 0.32 0.29 0.27 0.25 0.25 0.25 0.23 0.24 0.23 0.19 0.20 0.19 0.19 0.19 0.20 0.20 0.22 0.25 0.27 0.29 0.33 0.36 0.39 0.42 0.43 0.43 0.45 0.47 0.47 0.48 0.54 0.59 0.65 0.64 0.65 0.71 0.72 0.79 0.80 0.72 0.60 0.65 0.78 0.81 0.84 0.81 0.76 0.74 0.76 0.81 0.91 0.97 0.99 1.02 1.06 1.09 1.10 1.13 1.17 1.21 1.23 1.21 1.19 1.16 1.14 1.15 1.17 1.17 1.16 1.15 1.14 1.13 1.15 1.15
0.42 0.34 0.42 0.42 0.38 0.37 0.40 0.41 0.40 0.36 0.33 0.30 0.34 0.32 0.30 0.28 0.26 0.24 0.23 0.24 0.25 0.23 0.23 0.23 0.22 0.21 0.21 0.27 0.30 0.31 0.32 0.36 0.40 0.41 0.43 0.47 0.52 0.52 0.50 0.49 0.49 0.49 0.52 0.59 0.64 0.65 0.66 0.70 0.76 0.80 0.88 0.76 0.68 0.71 0.79 0.82 0.81 0.79 0.77 0.78 0.81 0.85 0.91 0.97 0.99 1.03 1.04 1.05 1.10 1.14 1.19 1.22 1.21 1.20 1.15 1.13 1.14 1.16 1.17 1.17 1.16 1.15 1.14 1.14 1.15 1.14
0.43 0.36 0.43 0.40 0.35 0.33 0.40 0.40 0.41 0.41 0.38 0.35 0.34 0.34 0.36 0.35 0.32 0.33 0.30 0.31 0.28 0.25 0.28 0.29 0.26 0.23 0.28 0.37 0.36 0.37 0.38 0.38 0.40 0.44 0.46 0.53 0.60 0.59 0.55 0.54 0.55 0.52 0.48 0.53 0.59 0.67 0.68 0.71 0.79 0.79 0.85 0.82 0.71 0.74 0.80 0.82 0.86 0.80 0.75 0.80 0.83 0.85 0.91 0.96 0.98 0.98 1.00 1.04 1.09 1.14 1.16 1.18 1.17 1.14 1.12 1.12 1.12 1.14 1.18 1.19 1.17 1.14 1.14 1.14 1.13 1.13
0.38 0.37 0.36 0.35 0.32 0.32 0.39 0.41 0.40 0.41 0.38 0.31 0.33 0.38 0.40 0.40 0.42 0.42 0.41 0.41 0.38 0.38 0.32 0.28 0.28 0.36 0.40 0.44 0.42 0.42 0.46 0.47 0.48 0.51 0.53 0.57 0.62 0.60 0.59 0.58 0.60 0.59 0.52 0.52 0.56 0.61 0.68 0.71 0.79 0.83 0.85 0.89 0.83 0.74 0.82 0.89 0.83 0.74 0.72 0.74 0.80 0.91 0.94 0.93 0.93 0.94 0.96 0.99 1.05 1.12 1.13 1.11 1.11 1.11 1.10 1.10 1.12 1.15 1.18 1.19 1.17 1.14 1.13 1.12 1.14 1.14
0.37 0.37 0.35 0.39 0.30 0.32 0.38 0.40 0.40 0.35 0.25 0.26 0.43 0.48 0.46 0.41 0.42 0.39 0.38 0.40 0.43 0.43 0.41 0.43 0.43 0.47 0.50 0.52 0.50 0.46 0.47 0.49 0.52 0.54 0.59 0.59 0.60 0.60 0.59 0.62 0.62 0.60 0.59 0.57 0.58 0.62 0.68 0.75 0.78 0.83 0.93 0.96 0.90 0.82 0.78 0.84 0.83 0.77 0.78 0.82 0.88 0.91 0.89 0.89 0.89 0.91 0.92 0.97 1.03 1.07 1.06 1.04 1.02 1.03 1.07 1.11 1.14 1.15 1.17 1.17 1.15 1.16 1.17 1.18 1.17 1.14
0.32 0.34 0.34 0.39 0.33 0.31 0.37 0.38 0.32 0.24 0.26 0.43 0.51 0.52 0.52 0.50 0.49 0.45 0.45 0.46 0.48 0.50 0.49 0.47 0.50 0.51 0.54 0.56 0.53 0.55 0.56 0.57 0.60 0.59 0.58 0.61 0.62 0.65 0.62 0.62 0.67 0.66 0.66 0.64 0.62 0.63 0.68 0.72 0.83 0.86 0.89 0.93 0.92 0.91 0.86 0.79 0.83 0.86 0.88 0.90 0.87 0.85 0.85 0.87 0.89 0.90 0.92 0.96 1.01 1.02 1.01 0.99 0.96 0.97 1.02 1.08 1.12 1.13 1.15 1.17 1.19 1.20 1.19 1.18 1.16 1.14
0.29 0.32 0.34 0.35 0.36 0.35 0.33 0.31 0.23 0.25 0.40 0.48 0.50 0.53 0.55 0.53 0.51 0.49 0.44 0.50 0.54 0.53 0.53 0.48 0.49 0.52 0.54 0.54 0.57 0.62 0.64 0.65 0.64 0.64 0.66 0.67 0.70 0.69 0.65 0.65 0.67 0.70 0.68 0.69 0.71 0.70 0.72 0.77 0.80 0.83 0.88 1.01 0.97 0.93 0.84 0.79 0.88 0.96 0.92 0.91 0.86 0.86 0.88 0.87 0.87 0.88 0.92 0.95 0.97 0.97 0.98 0.95 0.93 0.97 1.01 1.05 1.09 1.11 1.13 1.17 1.20 1.19 1.20 1.20 1.21 1.22
0.33 0.34 0.33 0.30 0.37 0.26 0.29 0.30 0.30 0.39 0.41 0.42 0.42 0.45 0.48 0.43 0.45 0.44 0.36 0.44 0.55 0.56 0.55 0.52 0.53 0.56 0.57 0.59 0.63 0.65 0.66 0.66 0.62 0.61 0.75 0.74 0.72 0.70 0.69 0.69 0.71 0.71 0.73 0.78 0.81 0.78 0.83 0.83 0.77 0.78 0.84 0.95 0.96 0.90 0.88 0.87 0.80 0.90 0.94 0.91 0.88 0.89 0.89 0.88 0.86 0.88 0.93 0.93 0.94 0.96 0.98 0.97 0.97 0.98 1.00 1.03 1.05 1.07 1.12 1.17 1.21 1.23 1.25 1.21 1.20 1.18
0.36 0.29 0.33 0.30 0.29 0.33 0.28 0.27 0.28 0.28 0.25 0.32 0.43 0.51 0.55 0.55 0.56 0.56 0.50 0.44 0.56 0.58 0.60 0.57 0.56 0.58 0.60 0.63 0.64 0.65 0.65 0.58 0.52 0.56 0.70 0.78 0.81 0.79 0.80 0.80 0.77 0.77 0.82 0.85 0.86 0.86 0.87 0.86 0.82 0.80 0.82 0.92 0.95 0.91 0.91 0.90 0.84 0.80 0.92 0.89 0.90 0.88 0.87 0.85 0.85 0.89 0.92 0.90 0.93 0.97 1.00 1.00 0.99 0.96 0.96 1.00 1.03 1.07 1.13 1.21 1.25 1.25 1.25 1.21 1.20 1.18
0.33 0.33 0.31 0.29 0.27 0.29 0.28 0.25 0.25 0.24 0.30 0.42 0.42 0.48 0.52 0.55 0.57 0.57 0.48 0.37 0.52 0.58 0.61 0.61 0.58 0.61 0.62 0.62 0.65 0.68 0.63 0.51 0.50 0.60 0.72 0.76 0.80 0.83 0.82 0.84 0.84 0.86 0.87 0.87 0.85 0.85 0.86 0.89 0.84 0.80 0.82 0.92 0.95 0.94 0.94 0.94 0.91 0.80 0.81 0.90 0.90 0.88 0.85 0.85 0.86 0.90 0.90 0.91 0.94 0.95 0.97 0.98 0.97 0.95 0.94 0.98 1.03 1.08 1.13 1.20 1.22 1.25 1.26 1.27 1.27 1.24
0.26 0.26 0.26 0.25 0.25 0.27 0.27 0.26 0.25 0.31 0.32 0.41 0.45 0.49 0.52 0.54 0.55 0.50 0.29 0.30 0.50 0.58 0.62 0.62 0.60 0.61 0.63 0.66 0.67 0.64 0.60 0.52 0.55 0.62 0.77 0.84 0.85 0.85 0.86 0.89 0.91 0.93 0.96 0.97 0.95 0.94 0.93 0.90 0.85 0.79 0.85 0.90 0.92 0.95 0.95 0.95 0.94 0.85 0.82 0.91 0.92 0.89 0.86 0.87 0.88 0.89 0.91 0.91 0.93 0.94 0.98 0.98 0.95 0.94 0.94 0.98 1.05 1.12 1.16 1.22 1.24 1.24 1.26 1.28 1.27 1.23
0.20 0.22 0.24 0.20 0.23 0.25 0.26 0.26 0.29 0.33 0.47 0.45 0.45 0.50 0.52 0.54 0.50 0.31 0.25 0.37 0.55 0.60 0.64 0.65 0.64 0.66 0.68 0.67 0.67 0.60 0.67 0.70 0.73 0.77 0.81 0.86 0.86 0.84 0.89 0.93 0.97 0.97 1.06 1.00 0.98 0.99 0.93 0.95 0.92 0.89 0.95 0.98 0.99 0.97 0.97 0.96 0.92 0.89 0.88 0.87 0.87 0.88 0.90 0.93 0.93 0.93 0.93 0.96 0.95 0.95 0.97 0.96 0.97 0.94 0.98 1.02 1.06 1.12 1.15 1.20 1.22 1.26 1.28 1.26 1.27 1.25
0.21 0.22 0.23 0.23 0.22 0.22 0.24 0.23 0.25 0.30 0.44 0.44 0.49 0.52 0.54 0.44 0.30 0.29 0.45 0.58 0.60 0.60 0.66 0.67 0.66 0.69 0.70 0.69 0.69 0.70 0.72 0.76 0.80 0.83 0.81 0.84 0.87 0.85 0.85 0.88 0.98 0.99 1.04 1.05 1.02 0.98 0.91 0.96 1.08 1.12 1.05 1.05 1.04 1.02 0.99 0.95 0.91 0.91 0.90 0.89 0.87 0.90 0.94 0.96 0.95 0.95 0.97 0.96 0.95 0.96 0.96 0.97 0.99 1.00 1.02 1.05 1.06 1.08 1.12 1.20 1.26 1.28 1.29 1.29 1.27 1.24
0.23 0.20 0.19 0.20 0.23 0.24 0.23 0.21 0.21 0.21 0.33 0.45 0.47 0.46 0.51 0.38 0.40 0.52 0.56 0.57 0.62 0.63 0.66 0.67 0.68 0.71 0.75 0.71 0.76 0.73 0.75 0.77 0.78 0.80 0.82 0.85 0.84 0.83 0.84 0.85 0.93 0.98 0.97 0.99 0.94 0.91 0.90 0.90 1.02 1.01 1.06 1.14 1.09 1.07 0.99 0.94 0.91 0.90 0.90 0.87 0.90 0.95 0.96 0.96 0.97 0.97 0.97 0.98 0.97 0.96 0.98 1.00 1.01 1.02 1.04 1.05 1.07 1.09 1.12 1.21 1.25 1.28 1.30 1.25 1.23 1.21
0.30 0.21 0.21 0.22 0.26 0.19 0.19 0.18 0.20 0.30 0.39 0.47 0.45 0.38 0.45 0.51 0.55 0.58 0.57 0.53 0.60 0.64 0.67 0.67 0.68 0.73 0.76 0.76 0.77 0.78 0.78 0.78 0.79 0.80 0.81 0.83 0.84 0.86 0.88 0.90 0.93 0.96 0.99 0.98 0.98 0.93 0.91 1.00 1.12 1.08 1.06 1.13 1.15 1.10 1.03 0.99 0.95 0.94 0.93 0.89 0.97 1.00 1.01 1.01 1.03 1.05 1.04 1.02 0.99 1.00 1.02 1.04 1.05 1.06 1.07 1.09 1.12 1.14 1.17 1.21 1.24 1.25 1.26 1.25 1.20 1.17
0.29 0.26 0.28 0.22 0.28 0.28 0.24 0.26 0.36 0.42 0.44 0.45 0.45 0.44 0.50 0.54 0.56 0.57 0.58 0.57 0.58 0.62 0.70 0.67 0.68 0.74 0.79 0.79 0.80 0.81 0.79 0.80 0.77 0.80 0.78 0.81 0.84 0.85 0.86 0.90 0.91 0.94 0.96 0.98 0.96 1.03 1.03 1.09 1.09 1.18 1.07 1.09 1.10 1.17 1.10 1.07 0.99 0.95 0.91 0.97 1.04 1.02 1.03 1.06 1.09 1.07 1.03 1.02 1.02 1.01 1.02 1.04 1.06 1.08 1.11 1.14 1.16 1.15 1.18 1.20 1.21 1.19 1.22 1.20 1.15 1.12
0.33 0.34 0.36 0.32 0.32 0.36 0.34 0.38 0.40 0.39 0.39 0.39 0.41 0.46 0.49 0.50 0.52 0.55 0.56 0.56 0.57 0.62 0.69 0.69 0.71 0.75 0.79 0.82 0.79 0.81 0.82 0.82 0.78 0.78 0.80 0.83 0.86 0.88 0.90 0.92 0.93 0.95 0.95 1.02 1.01 1.07 1.10 1.11 1.15 1.09 1.00 1.06 1.10 1.15 1.25 1.19 1.11 0.96 0.96 1.08 1.10 1.12 1.14 1.12 1.09 1.06 1.04 1.02 1.02 1.03 1.05 1.04 1.06 1.10 1.13 1.14 1.16 1.17 1.18 1.16 1.14 1.13 1.15 1.14 1.09 1.06
0.30 0.35 0.31 0.29 0.34 0.27 0.22 0.32 0.32 0.32 0.34 0.38 0.41 0.45 0.46 0.46 0.47 0.52 0.55 0.55 0.56 0.60 0.66 0.70 0.74 0.76 0.80 0.81 0.81 0.82 0.83 0.83 0.81 0.81 0.82 0.84 0.86 0.89 0.91 0.89 0.90 0.94 0.90 0.96 1.10 1.09 1.04 1.10 1.07 1.07 1.04 0.99 1.07 1.17 1.25 1.24 1.22 1.15 1.15 1.15 1.15 1.14 1.15 1.14 1.10 1.07 1.08 1.07 1.07 1.11 1.13 1.10 1.06 1.05 1.08 1.12 1.13 1.13 1.14 1.14 1.10 1.11 1.11 1.10 1.05 1.02
0.26 0.39 0.30 0.32 0.28 0.25 0.25 0.30 0.31 0.33 0.35 0.41 0.42 0.38 0.37 0.40 0.44 0.48 0.51 0.53 0.56 0.59 0.67 0.70 0.75 0.76 0.80 0.79 0.83 0.84 0.84 0.85 0.83 0.82 0.82 0.83 0.87 0.90 0.92 0.90 0.90 0.91 0.96 1.01 1.09 1.10 1.06 1.06 1.06 1.08 1.13 1.12 1.14 1.17 1.26 1.29 1.23 1.20 1.20 1.18 1.17 1.17 1.17 1.14 1.11 1.09 1.08 1.07 1.07 1.08 1.10 1.11 1.13 1.13 1.14 1.16 1.17 1.17 1.19 1.18 1.15 1.11 1.12 1.08 1.01 0.98
0.33 0.38 0.28 0.29 0.25 0.27 0.29 0.30 0.32 0.31 0.33 0.37 0.38 0.39 0.40 0.41 0.43 0.44 0.46 0.47 0.51 0.55 0.62 0.69 0.74 0.76 0.79 0.80 0.87 0.87 0.85 0.86 0.88 0.91 0.90 0.84 0.89 0.92 0.92 0.93 0.95 0.98 0.96 1.01 1.07 1.06 0.99 0.99 1.00 1.02 1.12 1.24 1.23 1.31 1.27 1.28 1.24 1.26 1.23 1.24 1.22 1.20 1.13 1.10 1.11 1.12 1.13 1.14 1.15 1.12 1.13 1.14 1.15 1.14 1.13 1.13 1.17 1.20 1.19 1.15 1.17 1.21 1.22 1.22 1.17 1.11
0.33 0.28 0.31 0.27 0.22 0.21 0.22 0.26 0.31 0.22 0.22 0.29 0.34 0.35 0.36 0.40 0.42 0.42 0.42 0.43 0.48 0.53 0.59 0.64 0.69 0.74 0.79 0.83 0.86 0.86 0.84 0.86 0.90 0.95 0.91 0.91 0.91 0.93 0.95 0.95 0.96 0.98 1.00 1.05 1.06 1.06 1.03 1.00 0.99 1.00 1.05 1.18 1.27 1.24 1.29 1.28 1.28 1.29 1.30 1.31 1.28 1.23 1.15 1.14 1.15 1.15 1.15 1.15 1.13 1.13 1.13 1.14 1.16 1.19 1.15 1.11 1.13 1.16 1.19 1.25 1.28 1.28 1.23 1.20 1.22 1.22
0.30 0.31 0.30 0.25 0.23 0.22 0.29 0.32 0.34 0.33 0.32 0.32 0.33 0.35 0.38 0.41 0.42 0.39 0.38 0.41 0.46 0.52 0.58 0.62 0.66 0.67 0.74 0.81 0.85 0.85 0.85 0.87 0.91 0.95 0.90 0.91 0.93 0.96 0.98 0.97 0.96 0.97 0.98 1.01 0.99 0.99 1.00 1.01 1.00 1.01 1.05 1.10 1.18 1.25 1.25 1.25 1.32 1.30 1.30 1.31 1.29 1.24 1.19 1.17 1.14 1.15 1.16 1.16 1.14 1.17 1.17 1.16 1.15 1.17 1.17 1.16 1.14 1.13 1.11 1.13 1.19 1.27 1.31 1.30 1.27 1.23
Wind_Speed
14 16 17 17 18 17 17 20 22 23 24 25 26 26 27 28 28 28 28 28 28 29 30 32 33 34 34 35 35 35 35 35 35 36 37 38 38 39 40 41 41 41 40 40 40 40 39 38 38 38 39 40 41 40 38 37 34 33 32 32 31 30 28 26 26 24 23 22 21 20 21 22 22 22 20 19 19 18 17 17 17 16 16 15 15 14
12 15 17 18 18 19 19 20 22 23 25 26 26 27 28 28 28 28 28 27 28 29 31 31 33 34 35 35 35 36 36 36 36 36 37 38 38 39 40 41 42 41 41 41 41 41 40 40 40 40 39 40 41 42 40 38 36 34 33 33 32 32 30 28 27 25 24 23 21 20 21 22 22 22 21 20 19 18 17 17 17 16 16 16 15 15
11 11 12 15 17 19 20 20 21 23 24 25 26 27 28 28 28 28 27 28 28 29 30 31 33 33 34 35 35 36 36 36 36 37 37 37 38 39 40 41 41 42 41 41 41 41 41 41 41 42 41 41 41 42 42 40 38 37 35 33 32 32 31 29 27 26 25 24 22 21 21 21 21 21 21 20 19 18 17 17 17 17 16 16 16 16
12 11 10 12 16 19 21 21 22 22 23 25 25 26 27 26 26 26 25 26 27 29 30 31 32 33 33 35 36 37 38 37 36 37 37 37 38 38 40 40 41 42 42 42 42 42 42 43 42 42 43 42 41 41 43 43 40 38 36 35 34 33 32 31 29 27 26 24 23 22 22 22 21 20 20 20 19 19 18 17 18 17 17 17 17 17
13 13 12 12 13 16 19 20 21 22 23 24 26 27 27 26 25 25 25 26 28 30 31 32 33 34 34 35 36 36 37 37 37 37 38 38 39 38 39 40 42 43 43 43 43 42 43 43 43 43 43 43 42 41 42 43 42 40 38 37 36 34 33 32 30 29 27 25 24 23 23 23 21 20 20 20 20 19 19 18 18 18 17 17 17 17
12 13 13 12 11 11 15 18 20 21 22 23 25 26 27 27 27 28 29 29 29 30 30 31 31 32 33 35 36 34 34 35 36 37 38 37 38 38 38 39 41 42 44 44 44 43 44 44 44 44 43 43 43 42 42 42 42 42 41 39 38 36 34 33 32 30 28 27 26 25 24 23 22 21 21 21 21 20 19 18 18 18 17 17 17 17
11 13 12 12 11 10 11 14 17 20 22 22 22 22 24 26 27 29 29 28 29 27 26 28 30 30 30 32 33 32 32 33 34 35 37 37 37 37 38 38 39 40 42 44 45 45 45 45 45 45 45 44 43 42 42 41 41 42 43 41 39 37 35 34 34 32 31 29 28 27 27 25 24 23 21 21 20 19 18 18 18 18 18 18 18 18
11 13 12 12 12 11 11 10 11 14 18 21 20 20 22 25 26 27 27 27 28 27 27 29 31 31 32 32 32 32 32 33 34 35 37 37 38 38 38 38 39 39 40 42 44 46 46 46 47 46 46 45 44 43 42 42 41 40 41 42 40 38 35 35 35 34 33 32 30 29 28 27 26 25 23 21 20 19 18 18 18 18 18 18 18 18
12 14 14 13 13 12 11 11 10 10 13 16 18 20 22 25 25 25 26 26 26 27 29 31 31 31 33 34 33 33 34 34 35 36 36 36 37 38 38 38 39 39 40 41 43 45 46 46 47 48 47 46 45 44 43 43 42 40 40 42 42 40 37 36 36 36 35 33 31 30 29 27 26 25 24 23 21 20 19 18 18 18 18 18 18 18
14 15 15 14 13 12 12 12 11 10 11 12 13 17 20 23 25 25 25 26 27 28 30 31 30 30 31 32 31 33 35 34 34 35 34 34 36 37 37 38 38 39 39 40 42 44 46 46 47 48 48 48 46 45 44 43 42 41 40 42 43 42 39 37 37 37 36 35 33 31 30 28 26 26 25 24 22 21 20 19 19 18 19 19 18 18
16 15 14 12 13 13 13 13 12 11 12 12 12 13 15 18 21 23 24 25 27 29 31 32 31 30 30 30 30 31 33 32 31 32 32 33 35 36 36 36 37 37 39 40 41 42 45 46 47 48 49 49 47 46 45 44 43 42 41 42 43 43 40 38 38 38 37 36 34 32 31 29 27 27 26 25 23 22 21 20 20 19 19 19 19 18
17 15 12 11 12 13 13 13 12 11 11 12 12 12 12 13 15 18 21 24 26 28 30 31 31 31 32 32 31 32 34 33 32 32 32 32 34 34 34 35 35 36 37 39 40 41 43 45 47 48 49 49 48 47 46 45 44 43 42 43 44 43 41 39 39 39 38 37 35 32 31 30 28 28 27 25 24 23 22 21 20 20 20 20 19 19
16 14 11 10 11 11 12 12 11 10 11 12 13 13 13 12 12 15 17 20 24 26 28 29 30 32 33 34 33 33 35 35 33 33 33 33 34 35 36 36 36 36 36 38 39 40 41 44 46 47 48 49 49 48 48 46 45 44 43 43 44 43 41 40 40 40 39 38 36 33 31 30 29 28 27 26 25 23 22 22 21 21 20 20 19 19
16 13 9 10 10 9 12 12 11 11 11 12 13 13 14 13 13 15 17 17 20 23 25 27 28 29 31 32 33 35 36 35 34 34 35 35 35 36 37 37 37 37 37 38 39 40 41 43 44 46 47 49 49 49 49 47 46 45 43 44 45 43 41 41 42 41 40 38 36 33 31 30 29 28 27 26 25 24 23 22 22 21 21 20 19 19
17 14 10 11 11 11 13 13 13 14 14 14 14 15 16 16 16 17 16 15 16 18 21 24 26 27 28 28 28 30 31 32 33 33 34 34 35 36 36 37 37 37 37 38 39 40 41 42 44 45 46 47 49 49 49 49 47 46 44 44 45 44 41 41 42 42 41 39 36 34 32 31 30 29 27 26 25 24 24 23 22 22 21 20 20 20
17 15 13 13 13 14 15 14 14 15 15 14 14 16 18 18 18 19 19 18 18 17 18 21 22 23 25 26 26 27 27 29 30 31 32 33 34 35 36 37 38 38 38 38 39 40 41 43 44 45 46 47 48 49 50 50 48 47 46 45 45 44 42 42 43 43 41 39 37 35 33 32 31 29 28 26 25 25 24 24 22 22 22 21 20 20
16 15 15 16 16 15 15 15 15 14 13 12 13 16 18 18 18 19 20 20 20 20 20 20 21 22 25 27 29 29 29 30 31 31 32 32 32 33 34 36 37 38 38 38 38 39 41 43 44 46 47 47 48 49 51 51 49 48 47 46 45 44 42 42 44 44 41 39 38 36 34 33 31 31 28 26 26 25 25 24 23 23 22 22 21 20
15 17 18 17 16 14 14 16 16 15 14 14 14 15 15 16 17 17 17 17 18 19 19 21 22 22 23 24 25 26 27 28 28 29 30 30 31 32 33 34 36 37 39 39 39 40 41 43 44 46 47 48 49 50 51 52 50 49 48 47 46 45 43 43 44 44 42 40 39 37 35 34 33 31 29 27 26 25 25 24 23 23 23 22 21 21
16 18 18 16 14 13 14 15 16 15 14 15 16 16 14 13 13 14 14 14 16 17 17 20 21 21 21 22 23 25 26 26 26 27 28 29 31 31 32 33 33 35 37 39 40 40 41 43 44 46 48 49 49 50 51 52 51 50 49 48 46 45 44 43 43 44 43 41 39 37 36 35 33 32 30 27 26 25 24 24 23 23 23 22 22 22
16 17 17 16 14 14 14 15 15 14 12 14 15 14 13 13 12 12 13 13 14 14 15 17 18 17 18 20 22 24 25 26 26 27 28 29 30 31 32 32 33 34 35 37 38 39 40 42 43 45 47 49 50 51 52 52 52 52 51 49 47 45 44 44 44 44 44 42 39 38 37 35 34 33 30 28 26 25 24 24 23 23 23 22 22 22
16 15 17 17 15 15 15 14 15 15 13 12 12 11 11 11 11 11 12 13 13 13 13 14 15 16 16 17 21 23 23 25 27 27 28 29 30 31 31 31 32 34 36 37 38 39 39 41 42 44 46 48 50 51 52 53 53 53 52 50 48 46 45 45 45 44 44 43 40 39 38 36 34 33 30 28 27 25 24 24 23 23 23 23 22 23
15 16 18 19 18 17 16 14 14 15 14 12 10 9 8 8 8 9 10 11 11 12 13 13 14 15 13 13 15 16 17 20 22 24 26 28 30 31 30 30 31 33 36 38 39 39 40 41 42 43 44 47 49 51 52 54 54 53 53 51 49 47 46 46 45 44 43 43 42 40 38 36 35 33 31 28 27 26 25 24 24 24 23 23 23 23
15 16 18 19 19 18 17 15 13 13 13 11 9 7 6 5 6 7 7 7 8 10 11 11 12 11 9 7 8 9 11 13 16 19 22 25 27 28 29 30 31 32 34 36 38 40 40 41 43 43 44 46 49 51 53 54 54 54 54 52 50 48 47 46 45 44 43 43 42 41 39 37 35 33 31 29 28 27 25 25 25 24 24 23 23 24
15 16 18 19 19 17 14 12 12 11 10 9 7 6 6 5 6 6 6 5 6 8 8 7 8 9 7 6 7 8 9 10 12 15 18 21 23 26 28 30 30 31 32 34 37 39 40 41 43 43 44 46 49 51 53 54 55 55 54 53 51 49 48 47 46 44 44 43 43 42 40 38 36 34 33 31 29 28 26 25 25 25 24 24 24 24
14 16 17 19 20 16 12 11 10 9 8 8 6 5 6 7 8 8 7 7 8 9 9 7 8 8 6 4 5 6 7 8 10 12 14 17 21 24 26 27 28 29 31 33 35 37 39 41 42 43 44 45 48 51 53 54 54 55 55 53 51 50 49 48 46 45 45 44 43 42 41 39 37 35 34 32 30 29 27 26 26 26 25 24 24 24
15 17 16 17 17 15 14 13 12 11 10 10 8 6 6 7 8 8 7 7 7 8 9 9 9 10 8 6 6 6 7 9 10 10 11 13 17 21 24 25 26 27 29 31 33 35 38 40 41 43 44 45 48 51 52 54 54 54 55 54 52 50 49 48 47 46 45 44 44 43 42 40 38 37 35 33 31 30 28 27 27 27 26 25 25 25
15 17 16 16 14 14 15 15 13 12 11 10 9 7 6 6 7 7 7 7 7 7 9 10 10 11 11 9 9 9 10 10 9 9 10 11 13 17 20 22 23 24 26 28 31 33 35 38 40 42 44 45 48 51 52 53 54 54 54 54 53 50 48 48 48 47 46 45 44 43 42 40 38 37 36 34 32 30 29 28 28 27 27 26 25 25
15 17 17 16 14 13 15 15 14 13 11 10 9 8 7 6 7 7 8 9 9 8 9 9 9 10 11 11 11 11 11 11 10 10 10 12 13 15 17 19 21 23 23 24 28 32 33 35 38 40 43 45 48 51 52 52 54 54 53 54 53 50 49 48 48 47 46 45 44 44 42 40 38 37 37 35 32 31 29 28 28 28 27 26 26 25
15 17 17 16 15 14 14 14 13 12 11 9 8 8 7 6 6 8 10 11 10 10 11 11 12 13 14 14 13 13 13 13 12 12 12 13 14 14 16 18 19 21 22 21 22 27 30 32 35 38 42 45 48 51 52 52 53 53 53 54 53 51 50 49 48 47 46 45 44 44 42 40 39 38 37 35 33 32 30 29 29 28 27 27 26 25
13 15 17 17 17 17 14 13 12 11 10 8 6 7 7 7 7 8 10 11 12 13 14 15 16 16 14 14 14 14 13 12 12 12 13 13 13 15 16 18 19 21 22 20 18 21 25 27 31 35 40 44 48 51 52 52 53 53 53 53 53 52 50 49 48 47 46 45 44 43 42 41 40 39 37 36 35 33 31 29 29 29 28 27 27 26
11 14 17 17 16 15 14 14 14 11 8 7 6 6 6 8 8 9 10 10 11 13 13 14 16 14 12 13 14 14 13 13 13 14 15 14 14 15 16 17 20 22 23 22 19 18 20 23 26 31 37 42 47 50 52 52 52 52 52 53 53 52 51 49 48 48 47 45 44 43 42 41 41 40 38 37 35 34 32 30 30 29 28 27 27 26
11 14 16 16 15 14 14 14 15 12 8 9 10 9 8 9 9 8 9 9 10 11 12 13 13 12 12 14 15 15 15 15 15 16 16 15 14 15 16 16 19 22 25 24 21 18 17 19 23 27 33 40 46 49 51 51 51 52 52 53 53 52 51 50 48 48 47 45 45 45 44 42 41 40 39 37 36 34 32 31 30 29 29 28 27 26
12 14 15 15 14 14 14 13 12 11 9 11 14 12 10 10 11 11 10 9 9 10 11 11 12 13 15 16 16 16 16 16 16 16 16 15 14 15 17 17 17 20 23 25 23 21 19 18 20 24 28 35 43 48 50 50 51 51 51 52 53 53 51 50 48 47 47 46 46 46 45 43 41 40 39 38 37 35 33 31 30 30 29 28 27 27
13 14 14 13 12 13 15 13 10 10 11 12 13 12 10 10 12 12 12 11 10 10 10 11 13 15 16 15 15 16 16 16 17 17 17 16 16 16 17 17 16 17 20 23 23 24 23 21 21 23 26 32 41 46 48 48 49 50 51 51 52 53 51 49 48 47 47 46 46 46 44 43 42 40 39 38 37 36 34 33 31 30 30 29 27 27
13 14 13 11 11 12 13 12 9 10 11 12 13 13 12 11 11 12 13 12 10 9 9 11 13 15 15 15 15 16 17 18 19 19 18 17 16 16 16 17 17 16 17 19 21 24 26 24 24 24 25 30 38 43 46 47 48 49 50 51 52 52 51 49 48 47 46 46 46 45 44 43 42 41 39 38 37 36 35 34 32 31 30 29 28 28
12 13 12 11 11 11 11 11 9 9 10 12 14 15 14 12 10 11 11 8 8 9 9 12 15 17 17 17 18 18 18 20 20 18 17 15 14 14 14 16 16 16 16 18 20 23 26 27 27 26 25 28 35 40 44 46 48 48 50 51 51 51 50 49 48 47 46 45 45 44 43 43 42 40 39 38 38 37 36 35 33 31 31 29 28 29
11 11 11 11 10 10 11 11 9 7 9 13 16 17 16 14 12 12 9 7 9 12 14 16 17 17 17 18 18 18 19 19 17 14 12 11 10 10 11 13 14 15 17 18 20 22 24 27 29 29 27 28 34 39 42 45 47 48 49 50 50 50 50 49 48 47 46 45 44 43 42 42 41 40 39 39 39 38 37 36 34 32 32 30 29 30
11 11 11 10 9 10 11 10 9 8 9 13 17 18 17 15 13 12 8 7 11 16 17 17 17 17 18 17 17 18 18 16 14 12 10 9 7 7 9 11 14 16 18 20 22 23 23 25 29 31 30 29 33 39 41 44 47 48 48 49 49 49 49 49 48 47 46 45 44 43 42 42 41 40 39 39 39 38 37 36 35 33 33 31 30 31
11 10 9 9 9 10 11 10 9 8 8 13 17 18 19 18 16 13 8 7 14 19 19 19 17 16 16 16 16 17 16 15 14 11 9 7 8 9 10 12 13 16 18 20 22 23 23 24 28 31 32 32 34 38 41 44 46 47 48 48 48 47 47 47 47 47 45 44 43 43 43 42 41 40 39 39 39 38 37 36 35 34 33 32 31 31
11 10 9 9 9 10 10 9 9 7 7 13 18 18 19 20 17 13 10 11 18 22 21 21 19 17 16 16 16 16 15 14 12 10 9 9 9 10 11 11 11 14 16 17 19 20 21 24 26 30 33 35 36 39 41 43 45 47 48 48 47 47 46 45 45 45 44 44 43 43 43 42 41 40 39 39 39 38 37 36 35 35 34 32 31 30
11 10 9 9 9 10 10 10 10 7 7 14 18 18 19 18 14 12 13 15 20 23 22 22 21 19 17 17 16 15 14 13 13 12 12 11 10 10 10 10 10 11 13 14 15 17 18 21 24 28 33 35 37 39 41 43 44 46 46 47 47 46 45 44 43 43 43 43 43 43 43 42 41 40 39 39 39 38 37 36 35 35 34 32 31 30
12 10 10 10 9 10 10 11 11 7 8 16 19 17 16 16 12 13 15 17 20 22 22 22 22 21 18 17 17 17 15 15 15 14 12 11 11 11 11 10 9 10 11 12 13 14 16 19 21 26 31 34 36 39 41 42 44 44 45 45 45 45 44 43 43 43 43 43 43 43 42 42 41 40 40 39 39 38 38 36 35 36 35 33 31 31
11 11 10 10 10 10 10 11 10 8 12 19 20 15 13 14 14 15 17 18 20 22 22 22 22 22 19 17 18 18 16 16 15 14 12 12 11 10 11 11 10 9 9 10 10 12 15 17 19 24 29 33 35 39 41 42 43 43 43 43 43 43 43 42 42 43 42 42 43 42 41 41 40 40 40 39 39 38 38 36 36 36 35 33 32 31
10 11 11 10 10 10 10 10 10 12 16 19 18 15 15 15 15 17 18 18 19 21 22 22 23 23 21 18 20 20 17 16 15 13 12 11 10 10 10 10 8 7 7 7 8 10 14 16 17 21 26 31 34 37 40 41 42 41 41 41 41 41 41 41 41 41 41 41 41 41 40 40 40 40 40 39 39 38 37 36 36 36 35 34 33 32
11 11 11 11 10 10 11 12 13 15 17 18 17 17 18 18 18 18 19 19 20 21 22 22 22 23 22 21 22 22 18 16 14 13 11 10 10 10 10 9 7 6 5 6 8 10 12 14 15 18 23 28 32 35 38 39 40 40 40 40 40 40 40 40 40 39 39 39 39 39 39 39 40 39 39 39 38 38 37 36 36 36 36 35 34 33
12 12 11 11 12 12 12 13 14 15 17 18 17 16 17 18 19 19 19 20 21 21 22 22 22 22 22 23 25 24 19 15 14 11 9 9 10 10 9 9 8 6 5 6 8 10 11 12 14 17 21 26 30 33 36 38 38 39 39 38 38 38 38 38 38 37 37 37 38 38 38 38 38 38 38 38 38 38 37 37 36 37 36 36 34 33
12 12 12 12 13 13 13 13 15 17 19 18 17 16 18 19 19 19 20 21 21 21 22 22 22 23 23 24 25 24 20 16 13 10 8 8 8 9 9 9 8 6 6 6 6 8 9 10 13 16 19 23 28 31 34 36 37 37 37 37 37 37 37 37 36 35 36 37 37 37 37 37 37 37 38 37 37 38 38 37 37 37 37 36 35 34
12 13 13 13 13 14 14 15 17 19 18 16 15 17 18 19 20 20 21 21 21 21 22 22 22 23 23 23 23 23 21 18 13 10 8 7 7 7 8 8 7 6 6 6 5 6 8 9 13 16 18 20 23 28 31 33 34 35 35 35 35 35 35 35 34 34 34 35 36 36 37 37 37 37 38 37 37 38 37 37 37 37 37 37 36 35
13 13 14 14 15 14 14 16 19 19 16 13 16 18 18 19 21 21 21 21 21 21 21 22 22 22 22 22 22 21 21 19 15 12 9 6 5 6 6 7 6 6 5 5 5 7 9 10 12 15 17 18 20 23 26 29 31 32 33 33 33 34 33 33 33 33 33 34 35 35 36 37 37 37 37 36 36 37 36 36 36 36 37 36 36 35
13 14 14 15 15 14 15 17 18 17 14 15 18 20 21 21 21 21 22 22 22 21 21 22 22 22 21 21 21 20 20 18 16 13 9 5 3 5 6 6 6 6 6 5 6 8 10 11 11 13 15 16 18 20 23 25 27 29 31 31 31 31 31 31 31 32 32 32 33 34 35 36 36 36 36 35 35 35 34 34 34 35 36 36 36 35
13 15 15 15 15 16 17 18 18 17 17 18 21 22 22 21 21 21 22 22 21 21 22 22 22 22 22 21 20 20 19 18 17 14 10 6 3 4 5 6 6 6 6 6 6 8 11 12 12 13 14 15 17 19 21 23 25 27 28 29 29 30 30 30 31 31 31 31 33 33 34 35 36 36 35 35 35 34 33 33 33 33 34 35 34 34
Wind_Direction
284 270 260 257 255 254 256 253 251 252 250 248 247 246 246 245 244 243 242 240 240 243 242 241 243 243 242 241 240 240 239 238 237 236 234 232 232 231 231 231 230 229 229 228 227 226 225 225 223 221 221 221 221 219 219 220 219 219 219 221 222 222 222 223 224 224 222 222 221 220 220 220 219 219 221 225 227 229 230 231 233 235 236 237 238 238
298 278 264 260 259 257 258 255 252 251 249 247 246 246 246 245 245 245 243 241 241 243 244 243 245 244 243 242 241 240 239 238 237 236 235 233 232 232 232 232 231 230 229 228 227 226 226 226 223 222 222 222 222 220 219 220 219 220 220 221 222 222 221 223 224 223 221 220 221 222 222 220 218 218 220 224 226 228 231 232 233 235 236 236 238 238
317 298 279 268 263 259 257 255 253 251 249 247 246 246 246 246 247 246 243 242 242 242 244 245 245 245 244 243 241 240 239 238 237 236 235 234 233 232 232 232 232 231 230 229 228 227 226 226 225 224 224 224 224 222 221 221 220 220 221 221 222 222 222 223 223 221 220 220 221 220 219 217 218 218 220 223 225 227 230 232 233 235 235 236 237 238
335 330 313 284 271 265 260 256 253 251 250 247 246 247 246 246 247 245 241 241 242 242 245 247 247 246 245 243 242 240 239 238 237 236 235 235 233 233 233 232 232 232 231 230 229 228 227 227 225 224 225 225 225 224 222 221 220 220 220 219 220 221 222 222 222 220 220 221 219 216 215 215 216 217 218 222 224 227 231 233 234 235 236 237 238 239
331 336 332 308 285 271 263 258 255 253 251 248 246 247 248 248 248 246 245 248 248 247 246 247 248 246 243 243 242 240 239 238 237 236 235 234 233 233 232 232 232 231 231 230 229 228 227 227 226 224 225 225 225 224 223 221 220 221 220 219 220 221 222 222 221 219 219 219 216 213 213 212 213 214 217 221 224 227 231 235 235 235 237 239 239 239
335 342 338 327 311 285 268 261 257 254 254 252 248 248 248 249 250 249 250 252 251 249 245 242 245 245 242 241 240 237 237 236 235 235 234 234 233 233 232 231 231 231 231 230 229 229 228 228 227 225 224 224 224 224 223 222 221 221 221 221 220 221 222 222 220 219 218 218 216 213 212 211 212 215 218 222 225 228 233 237 237 236 238 239 240 240
338 344 339 331 325 312 289 271 262 257 255 254 252 251 250 249 250 250 250 249 247 249 244 237 241 246 243 239 237 235 235 234 233 234 235 234 234 233 233 232 231 231 230 229 229 229 228 228 227 226 224 224 224 223 223 222 221 222 223 222 220 221 221 221 219 219 218 217 216 214 214 214 215 218 222 225 227 230 234 238 238 237 239 240 239 239
339 337 335 330 323 316 307 295 280 263 255 255 254 254 253 252 252 250 248 247 247 248 246 239 241 247 244 240 238 237 236 235 235 236 237 236 235 235 234 233 232 231 230 229 228 228 227 227 227 226 224 223 224 223 222 222 221 221 222 220 219 221 222 220 219 218 218 217 215 215 215 216 218 220 223 226 228 232 235 237 238 238 240 240 239 238
338 332 330 328 322 315 310 309 304 283 266 264 259 255 255 255 254 252 249 248 248 247 246 241 240 244 245 242 240 238 237 237 238 238 238 237 236 235 234 233 232 231 231 230 229 228 227 227 227 226 225 223 224 223 222 222 221 221 222 221 220 220 221 220 219 218 216 215 215 216 216 217 219 221 223 225 228 231 234 236 237 238 239 239 238 237
332 331 328 324 322 317 310 307 301 289 279 277 271 262 258 255 253 252 250 249 249 247 245 242 238 242 245 242 238 237 236 237 238 237 237 236 236 235 234 234 232 231 231 231 230 229 227 227 226 226 225 223 223 223 222 222 221 219 220 220 219 219 220 220 218 216 214 215 215 216 217 217 219 221 222 224 226 229 232 235 237 238 239 238 237 236
325 324 323 320 320 319 314 306 294 286 283 281 280 275 266 258 252 249 248 248 249 247 244 243 240 243 246 242 237 237 236 236 236 236 236 235 236 236 235 234 233 231 231 230 230 229 227 227 226 226 225 223 222 223 222 221 220 218 218 218 217 218 219 219 217 214 213 215 215 216 217 217 219 221 222 223 224 227 231 234 236 237 238 237 236 236
324 323 325 322 321 320 318 310 294 282 281 279 278 279 278 270 261 255 249 244 246 247 245 243 241 242 244 242 240 240 239 238 237 238 238 238 238 237 235 234 233 232 231 230 230 229 228 227 226 225 224 222 221 221 221 221 220 218 218 217 216 217 219 218 216 214 214 215 215 216 217 217 219 220 221 222 224 226 231 235 236 237 237 236 236 236
329 330 330 325 323 321 319 318 307 288 281 279 274 272 275 274 269 265 254 244 245 248 247 244 241 241 243 243 242 242 241 239 238 239 241 241 240 239 237 235 234 233 231 230 230 229 227 226 225 224 223 222 221 220 220 220 219 218 218 217 215 216 218 218 216 214 215 215 215 216 217 217 218 220 222 223 224 227 232 236 236 236 235 235 235 236
334 335 332 327 328 322 317 319 315 302 288 279 273 268 268 269 268 267 261 250 249 251 248 243 240 243 246 245 243 243 242 241 241 241 242 242 241 240 238 237 235 234 232 230 230 230 227 226 225 224 223 222 220 219 219 220 219 218 218 216 215 215 217 217 215 213 214 215 215 216 216 216 218 220 222 224 226 229 233 237 237 236 235 235 235 236
334 334 334 331 331 323 316 314 309 306 295 281 275 270 267 266 266 268 266 258 255 257 251 242 240 243 246 246 243 242 241 241 240 240 240 240 240 240 239 238 236 234 232 231 230 229 227 226 225 224 223 222 220 219 218 219 219 218 217 216 215 215 215 216 215 213 214 215 214 215 215 215 218 220 222 225 228 231 234 237 237 236 235 235 235 237
329 327 330 329 325 319 316 313 307 303 297 288 278 270 268 268 268 270 269 264 262 262 254 246 244 244 246 248 245 243 243 241 240 239 240 240 240 240 239 238 236 234 233 231 230 229 227 226 225 224 223 222 221 219 218 218 217 217 217 215 214 215 215 216 215 213 214 214 214 215 215 215 218 220 223 225 228 232 235 236 236 235 235 234 235 237
328 326 330 326 318 315 312 311 308 299 298 301 286 275 276 275 271 269 268 263 258 257 253 249 250 250 249 250 247 245 246 244 243 242 240 240 240 240 239 237 236 234 232 231 229 229 228 226 225 224 223 222 221 219 218 217 216 216 216 214 213 214 215 216 216 213 213 214 213 214 215 216 218 220 223 225 228 232 234 235 236 236 235 234 235 237
327 323 326 322 316 321 321 313 307 295 292 296 291 290 289 278 269 265 264 260 253 254 255 252 252 253 251 249 245 244 244 242 242 240 239 239 239 239 238 237 236 234 232 231 230 230 229 227 225 224 223 222 221 219 218 217 216 216 215 213 212 213 214 216 215 213 213 213 213 214 215 216 218 220 222 225 228 231 233 235 236 236 235 234 235 236
329 324 329 329 323 330 332 321 312 300 289 288 292 297 293 278 269 258 253 256 254 254 257 255 255 256 254 251 248 245 243 242 241 241 242 242 239 237 236 237 236 235 233 231 231 230 229 228 225 224 223 222 221 219 217 216 216 215 215 213 212 213 214 214 214 212 212 213 214 214 215 216 218 220 222 225 228 230 232 234 235 235 234 234 234 236
329 324 330 337 333 331 330 324 320 312 301 295 295 295 285 275 272 259 249 254 256 257 259 261 261 259 256 255 252 248 245 244 244 245 245 243 240 237 236 237 236 235 233 232 230 229 228 226 224 223 222 222 221 219 216 215 215 215 214 212 212 213 214 213 212 212 213 214 214 214 215 216 217 219 222 225 228 229 232 233 234 234 233 233 233 235
328 321 323 331 332 328 325 324 322 320 315 308 301 294 282 270 265 260 255 253 256 260 262 265 266 264 264 262 257 253 249 247 246 247 247 244 241 237 235 236 236 236 234 233 231 230 228 226 224 222 222 221 220 218 216 215 214 214 213 212 212 213 212 212 212 211 212 213 213 213 215 216 217 219 222 225 228 229 231 233 233 233 232 232 233 234
327 324 320 322 323 320 318 319 320 318 316 314 310 300 286 271 257 255 255 251 252 258 260 265 271 273 272 266 258 254 250 247 248 249 249 246 241 237 236 237 237 236 235 234 232 230 228 227 224 223 222 220 219 217 215 214 213 213 212 211 211 211 211 211 211 210 211 211 212 213 215 216 217 219 221 224 227 229 231 232 232 232 231 231 232 234
328 327 322 319 320 319 317 318 319 317 315 314 312 302 288 270 247 246 256 255 254 257 259 264 269 272 271 259 253 254 252 252 254 253 250 244 239 239 240 240 239 237 235 234 232 231 229 227 224 223 222 220 219 217 214 213 212 212 211 210 210 210 211 211 210 210 210 211 212 213 214 216 217 218 220 223 227 229 230 231 231 231 231 231 232 233
336 334 327 324 325 325 325 329 327 322 318 314 307 293 277 254 237 248 266 273 273 267 262 262 261 264 268 259 255 260 260 261 262 257 250 241 237 240 243 241 240 238 237 235 233 231 228 226 224 222 221 219 218 216 214 212 212 211 210 209 209 209 210 211 210 210 210 211 212 213 214 215 217 218 219 223 227 228 229 230 231 231 230 231 231 232
337 333 331 331 333 334 339 344 341 336 331 324 313 291 271 256 248 253 264 274 278 271 265 264 261 262 267 263 261 262 262 270 269 258 250 242 239 242 243 241 239 240 238 235 233 231 228 226 224 222 220 219 217 215 213 212 211 211 209 208 208 209 210 211 211 211 211 211 212 213 214 215 216 218 220 224 227 228 228 229 230 230 230 230 231 231
334 332 331 331 333 334 334 334 337 337 332 324 315 294 275 264 253 255 265 269 272 272 268 263 264 272 273 268 271 273 274 282 278 261 251 246 245 246 244 241 239 239 238 235 233 231 228 226 224 222 220 218 217 215 213 211 211 210 208 207 207 208 209 211 211 211 211 212 213 214 214 214 216 218 220 223 226 227 227 228 230 230 229 230 230 230
337 337 335 328 323 322 322 323 328 331 324 319 313 298 283 269 258 262 271 267 270 287 283 267 266 276 278 277 282 286 290 294 288 269 257 256 259 253 244 241 240 239 237 234 230 229 228 226 224 223 220 218 216 214 212 211 210 209 208 206 206 207 208 210 211 211 212 213 213 214 214 214 216 217 220 223 225 226 226 227 229 230 229 229 229 229
340 342 342 335 324 319 321 322 325 323 316 314 313 304 293 280 265 260 263 265 271 286 284 274 276 281 285 292 293 293 298 301 293 277 268 271 272 258 244 243 244 240 236 232 228 228 228 226 224 223 221 218 215 214 212 210 209 208 207 206 205 206 207 209 210 211 211 212 213 213 214 215 216 217 220 222 224 225 225 226 228 229 229 229 228 229
342 343 348 346 335 330 328 326 327 326 321 317 312 307 303 292 277 266 263 264 266 267 270 281 292 291 289 293 294 295 298 296 288 282 279 279 272 257 247 247 245 238 232 229 228 227 226 225 224 222 220 217 214 212 211 209 208 207 206 205 205 206 207 208 210 210 211 212 212 213 214 214 216 218 219 221 222 223 224 225 227 228 228 228 228 228
346 346 351 350 341 340 343 340 340 339 337 334 322 314 314 304 291 281 273 268 266 266 269 280 287 286 285 289 292 296 297 291 287 287 286 283 271 257 253 250 243 235 228 225 225 224 223 224 224 221 218 215 212 210 209 208 207 206 205 205 204 205 206 208 209 210 210 211 212 213 213 214 216 218 218 219 220 222 223 224 226 227 227 227 227 228
347 347 351 350 345 350 1 2 0 0 4 5 349 331 331 324 306 290 280 274 271 270 271 279 283 281 285 295 297 299 298 293 290 290 289 288 277 260 254 251 244 235 227 224 223 223 224 225 223 220 216 212 209 209 208 208 206 205 204 205 204 204 206 207 209 209 210 211 212 212 213 215 216 218 218 218 219 220 222 224 225 226 226 226 227 227
339 340 347 349 348 355 4 6 10 17 29 27 11 352 345 343 333 313 296 283 276 278 281 283 285 286 295 304 303 301 300 295 292 292 290 288 279 263 256 254 245 233 227 225 225 225 226 227 224 221 216 211 208 207 207 207 206 204 204 204 204 204 206 207 208 209 210 211 212 212 213 215 216 217 217 217 217 219 221 223 225 225 225 226 226 227
336 337 343 348 348 352 356 358 5 10 16 20 11 355 342 340 337 333 324 305 284 284 288 286 289 298 306 308 304 301 301 296 293 293 290 285 277 265 258 253 241 231 227 227 228 229 230 230 225 220 217 212 207 206 205 205 205 203 203 204 204 204 205 206 208 209 210 211 212 213 214 215 215 216 216 217 217 219 221 223 224 225 225 225 226 227
334 335 340 346 345 345 348 348 350 358 7 13 7 356 344 334 330 329 327 317 300 293 292 292 301 308 309 307 306 304 302 299 296 294 290 284 276 266 258 246 234 231 229 227 230 232 232 231 226 220 217 212 207 205 204 203 203 203 203 204 204 204 205 206 207 209 210 211 212 213 214 214 215 215 216 217 217 219 221 223 224 225 225 225 225 226
329 334 337 342 342 341 345 346 347 1 13 11 4 359 351 337 329 323 319 316 314 307 299 302 311 313 309 308 310 309 306 304 300 294 288 283 274 265 254 239 230 233 232 228 231 232 232 232 228 221 219 213 207 204 203 201 202 202 202 203 203 203 204 206 207 208 210 211 212 213 213 213 214 215 215 216 217 218 220 223 224 225 225 225 226 227
327 332 334 337 340 342 346 348 353 6 15 10 5 5 360 350 344 338 334 342 351 340 326 319 314 312 311 309 309 310 311 309 303 293 286 282 274 263 248 234 232 237 236 232 231 231 231 231 227 220 217 213 207 204 202 200 200 201 202 202 203 203 204 205 207 208 209 210 211 212 213 213 213 214 215 216 217 218 221 223 225 225 225 225 227 228
327 330 332 335 341 346 343 341 346 2 15 12 10 11 8 0 353 345 343 358 0 347 336 326 315 310 311 309 307 310 312 310 303 296 293 287 275 261 245 236 240 243 239 236 235 233 231 231 227 220 215 211 207 204 202 200 199 200 201 202 202 203 204 205 207 208 209 210 211 212 212 212 212 213 214 216 218 219 222 224 225 226 225 225 226 228
327 328 329 328 334 340 338 339 345 354 6 8 6 5 3 357 353 348 343 350 354 347 339 330 320 315 314 312 310 311 312 309 304 300 297 287 272 262 254 251 250 244 239 239 238 236 233 231 225 219 214 211 207 204 202 200 198 199 200 202 202 202 204 205 207 208 209 210 210 211 211 211 212 213 215 218 219 221 223 224 225 225 226 226 226 228
331 328 325 324 330 337 337 336 342 346 357 2 358 357 355 351 350 350 346 349 355 351 344 338 330 322 319 316 314 313 313 311 306 300 295 288 277 271 269 268 257 242 236 238 237 235 234 231 224 217 212 210 206 203 201 200 199 199 200 201 202 202 203 205 207 208 209 209 210 211 211 212 214 216 218 220 221 221 222 223 225 226 226 226 227 228
334 331 327 326 329 334 333 329 330 332 345 353 353 353 350 345 345 353 356 351 350 349 347 344 338 328 322 320 320 319 316 312 307 296 284 281 282 279 275 273 258 239 235 237 234 232 232 227 219 213 209 208 206 203 201 200 199 199 200 201 202 203 204 205 206 208 209 210 210 211 212 214 216 218 219 220 221 222 222 223 224 225 225 227 228 229
334 330 330 331 328 330 330 325 324 325 334 344 347 349 346 341 347 3 359 346 343 343 343 343 340 332 325 321 320 320 314 305 299 291 281 277 285 288 279 271 259 244 239 235 229 228 227 220 213 209 206 204 203 202 200 199 199 199 199 200 202 203 204 206 207 208 210 211 211 213 214 216 218 218 219 220 221 222 222 223 224 225 225 227 229 229
335 330 331 334 328 324 325 322 320 320 332 338 339 343 348 350 355 356 346 339 339 340 340 342 340 336 331 325 319 315 310 303 298 293 288 285 286 285 278 272 268 257 244 233 226 224 220 214 211 208 204 201 199 199 198 197 198 198 199 201 202 204 205 206 207 208 210 211 212 213 215 217 218 219 219 220 221 222 222 223 224 224 225 227 229 229
334 329 328 332 326 318 322 326 324 319 328 335 335 336 346 350 343 335 332 334 338 339 340 342 340 338 338 334 326 317 310 308 303 294 289 286 280 277 274 273 274 267 248 234 225 218 213 210 209 205 201 197 195 195 195 196 196 197 199 201 202 203 204 205 207 208 209 210 212 214 216 217 218 219 219 220 220 221 221 222 222 223 225 227 229 229
335 330 322 324 324 317 316 321 319 314 320 330 333 331 333 335 330 327 328 332 337 339 341 341 339 339 339 338 335 328 317 312 307 295 286 281 273 270 270 266 269 272 256 233 216 209 209 208 203 196 194 193 193 192 193 194 195 197 198 199 200 201 202 204 206 207 209 210 212 214 216 217 217 218 218 218 219 219 219 220 222 224 226 227 229 229
334 330 319 315 314 308 302 304 308 312 318 325 328 327 327 328 328 327 328 331 334 337 340 339 336 337 338 338 340 337 325 316 310 297 285 277 267 263 261 255 260 270 256 224 208 206 208 206 199 191 189 191 192 193 193 193 194 196 197 199 199 200 202 204 206 207 208 210 213 215 216 216 216 216 216 217 218 218 218 220 223 225 226 227 228 228
327 326 318 312 309 305 300 300 306 312 317 320 320 324 327 328 327 327 327 329 332 335 337 336 334 336 338 338 341 341 333 323 316 304 289 275 262 254 248 246 256 264 241 215 210 210 206 199 194 190 188 190 194 195 194 193 194 195 197 198 200 201 203 205 206 208 209 211 213 213 214 214 214 215 216 217 219 219 220 222 225 226 226 227 228 228
327 328 321 314 312 310 306 305 311 314 314 315 317 323 328 327 326 326 326 326 328 330 334 336 336 337 338 339 342 345 342 333 322 312 301 281 260 248 239 240 256 261 236 221 220 213 201 192 188 184 183 190 197 198 194 192 193 194 196 198 200 202 204 206 207 208 209 209 210 211 211 212 213 215 216 218 220 221 222 225 226 226 226 226 227 227
326 327 324 319 315 311 307 308 313 311 308 309 315 322 326 326 325 324 324 324 324 326 331 336 337 338 340 342 346 348 348 345 338 324 310 287 254 239 234 236 251 255 231 221 225 211 197 191 190 185 181 185 192 194 192 191 192 194 196 197 199 201 203 205 206 207 207 208 210 211 212 213 214 215 217 219 220 221 223 224 226 226 226 225 226 226
322 321 322 321 317 312 310 313 316 311 302 304 314 319 322 323 322 322 323 324 323 324 329 334 336 338 341 344 346 348 349 352 351 340 323 298 252 233 231 235 245 247 228 217 217 207 197 193 192 191 191 191 189 187 187 189 191 194 196 197 199 199 201 204 206 207 207 208 210 212 213 214 215 216 217 219 220 221 223 225 226 226 225 226 227 227
320 318 321 322 318 316 316 318 319 313 301 301 310 314 316 317 318 320 322 323 323 323 327 331 333 336 340 342 345 347 349 352 354 350 340 321 273 242 237 239 243 243 233 224 217 208 201 197 193 193 197 200 196 191 189 190 191 194 197 199 199 200 201 204 206 207 208 209 211 213 214 215 215 217 218 219 220 221 224 225 225 225 225 226 227 227
318 318 320 320 316 314 315 316 316 310 301 300 304 307 309 312 315 317 320 322 321 322 326 329 329 331 336 340 345 348 350 352 355 358 355 341 303 263 249 245 243 243 240 232 222 213 205 201 200 197 198 201 201 199 197 195 193 194 198 201 202 203 205 207 208 209 210 211 213 214 215 216 216 217 219 220 220 220 222 224 225 226 226 225 225 225